Wind_Speed
46 46 45 45 45 45 45 44 43 42 42 41 41 41 41 41 41 41 42 43 44 44 44 45 45 46 46 47 47 47 47 48 49 48 49 50 51 51 52 52 51 51 52
46 46 46 46 46 45 44 44 44 43 43 43 42 42 42 42 42 42 43 44 45 45 46 46 46 47 47 47 48 48 49 49 50 50 50 51 51 51 52 53 52 52 52
47 47 46 46 46 45 45 44 44 44 44 44 43 43 43 43 43 44 44 45 45 46 47 47 47 48 47 48 48 49 49 50 51 52 51 51 51 51 52 52 53 52 53
47 47 47 46 46 46 46 46 45 45 45 45 44 44 44 44 44 45 45 46 46 47 47 48 49 49 48 48 49 50 50 51 51 52 52 51 51 51 52 52 52 52 53
46 47 47 47 46 46 46 46 46 45 45 45 45 45 45 46 46 46 47 46 47 48 48 49 49 50 49 50 50 51 51 51 52 52 52 52 52 51 51 52 52 51 52
46 46 47 47 47 47 46 46 45 45 45 45 45 45 45 45 46 46 47 47 48 48 48 49 49 50 50 51 52 52 52 52 52 52 52 52 51 51 51 51 51 51 51
46 47 47 47 48 48 48 47 46 46 45 45 45 45 45 45 46 47 48 48 48 48 48 49 49 50 50 51 52 52 51 51 52 51 51 51 51 50 51 51 50 50 49
46 46 47 47 47 47 47 48 47 47 46 46 46 46 46 46 47 48 48 48 48 48 49 49 50 50 50 51 51 51 51 51 51 51 51 50 50 50 51 51 49 48 49
45 45 46 46 46 47 48 48 48 48 47 47 47 48 48 48 48 48 48 48 49 49 49 50 49 49 50 50 50 51 51 50 50 50 49 49 49 49 49 49 48 48 48
45 45 45 46 46 47 47 48 48 48 49 49 49 49 49 49 49 49 49 49 49 49 49 49 49 49 49 49 49 49 49 49 49 49 48 48 48 49 49 48 48 48 47
45 45 44 45 46 47 47 47 47 48 48 49 48 49 49 49 49 48 48 48 48 49 49 48 49 49 49 49 49 48 48 48 47 47 47 47 47 48 47 47 46 46 45
43 44 44 45 45 46 47 46 46 46 46 46 47 48 48 47 47 47 47 48 48 48 48 47 48 48 48 48 48 48 47 47 46 46 47 46 46 46 45 45 45 45 44
42 42 43 43 44 44 45 44 44 44 45 45 45 45 46 46 47 47 47 47 47 47 47 47 47 47 47 47 47 46 46 46 45 45 45 45 45 45 45 45 44 44 44
40 40 41 42 43 44 44 44 44 44 44 45 45 45 45 46 46 46 46 47 47 46 45 45 45 45 45 45 44 44 44 43 44 44 44 44 44 44 44 43 42 43 42
40 41 41 41 42 42 43 43 43 43 44 44 44 44 45 45 45 46 46 46 45 45 45 44 44 44 43 43 43 43 42 42 42 42 42 42 42 42 42 42 41 41 39
41 41 40 40 41 41 41 41 42 43 44 44 44 44 44 44 44 45 45 44 44 44 43 43 43 42 41 41 41 40 41 41 41 41 41 40 39 39 39 39 38 37 37
41 41 41 41 41 41 42 43 43 43 43 43 43 44 44 44 43 43 43 42 43 43 43 42 41 40 40 39 39 39 39 39 39 39 38 38 37 37 37 36 35 36 36
40 40 41 41 42 42 42 42 43 42 42 43 43 43 43 43 42 42 42 42 42 42 41 40 39 39 38 38 38 38 38 38 38 37 36 36 36 35 35 34 34 34 34
38 39 40 41 42 42 42 42 42 42 42 42 42 43 42 42 41 41 41 41 40 40 39 38 38 37 37 37 36 36 36 36 35 35 35 34 34 34 33 33 33 32 32
36 37 38 39 40 40 40 40 40 40 40 41 41 41 40 40 39 39 39 38 37 36 35 35 34 34 34 34 34 34 34 34 33 33 33 32 32 32 32 31 31 31 31
35 36 37 37 37 37 38 38 38 39 39 39 39 38 38 37 37 37 36 35 34 33 33 32 32 32 32 32 32 33 32 32 32 32 31 31 30 30 30 30 30 31 31
33 34 34 35 35 35 35 35 36 36 37 37 36 36 36 35 35 33 32 32 32 32 31 31 31 31 31 31 31 31 31 31 31 30 30 30 29 29 29 30 30 30 30
30 31 31 32 32 32 33 33 33 33 33 33 33 33 33 32 31 31 30 30 30 30 30 30 30 30 30 30 30 30 30 29 29 29 29 29 29 29 29 29 29 29 29
28 28 28 28 29 29 30 30 30 30 30 30 30 30 29 29 29 29 29 29 29 29 29 29 29 28 28 29 29 29 29 28 28 28 28 27 27 28 28 28 27 27 26
25 25 25 25 26 27 27 28 28 27 27 26 26 26 26 26 26 26 26 26 26 27 27 27 27 27 27 27 27 27 27 26 26 26 26 26 26 26 26 25 25 24 23
23 22 23 23 24 24 25 25 24 24 24 24 24 24 24 24 24 23 23 23 24 25 25 24 24 25 25 25 25 25 25 25 25 25 25 24 24 23 23 22 22 22 22
Wind_Direction
241 243 245 247 249 251 253 255 256 258 260 262 264 265 268 271 273 274 276 276 277 278 279 281 282 284 286 287 287 288 289 291 292 292 293 294 294 294 294 294 296 296 296
241 243 245 247 249 251 253 255 257 259 261 262 264 266 269 271 273 275 277 278 278 278 279 281 283 284 285 287 287 287 289 291 292 293 293 293 294 294 294 294 295 296 296
241 243 245 247 249 252 253 256 258 259 260 262 264 267 269 271 274 276 277 278 279 280 281 282 283 284 285 286 286 288 290 291 292 293 293 293 294 295 294 294 295 296 297
242 243 244 247 249 252 253 256 258 259 260 262 264 267 269 272 274 276 278 279 280 281 282 283 284 285 285 286 286 288 289 291 292 293 293 293 293 293 294 295 296 296 296
241 243 244 247 249 251 253 256 257 258 261 263 266 268 270 272 274 276 278 280 281 282 283 283 284 285 285 285 287 289 289 290 292 293 293 293 294 294 294 295 295 295 296
241 243 244 246 248 250 252 254 257 259 261 264 266 268 271 273 275 276 278 281 282 282 283 284 284 285 286 287 288 289 289 290 291 292 293 293 294 294 295 295 295 296 295
242 244 246 247 248 250 252 255 257 259 262 264 266 268 271 273 274 277 280 282 282 283 285 286 286 286 286 287 288 289 290 291 291 292 292 293 293 293 294 295 296 296 296
244 245 246 248 249 250 253 255 257 259 261 263 265 268 271 274 276 278 280 282 282 283 285 286 287 286 286 287 288 289 290 290 291 291 292 293 293 294 294 295 295 296 297
244 246 248 249 250 253 254 255 257 259 261 264 266 269 272 274 276 279 280 281 282 283 284 285 286 286 286 287 288 288 289 289 289 290 291 292 294 294 295 296 296 296 297
245 246 247 249 251 254 256 257 258 260 262 265 267 270 272 274 276 278 279 280 281 282 284 285 285 287 287 287 287 288 288 289 289 289 291 292 294 294 295 296 297 297 297
245 247 249 249 251 253 255 257 258 260 262 265 267 269 272 274 276 277 278 280 281 282 283 284 285 287 287 287 287 288 288 289 289 289 290 292 293 294 295 296 297 298 298
246 247 249 251 252 254 255 256 259 261 263 265 267 269 271 273 275 277 278 280 281 283 283 284 286 287 287 287 287 288 288 289 289 289 290 291 292 293 294 295 296 297 298
247 248 251 253 254 255 256 258 260 262 264 266 268 270 272 274 275 277 279 281 282 282 283 284 286 287 287 287 287 286 287 288 289 290 291 291 291 292 293 294 295 296 298
250 252 254 255 256 257 259 261 262 264 266 268 270 272 273 275 276 277 279 281 281 282 283 285 286 287 287 288 287 287 287 289 291 292 292 292 291 292 293 294 295 296 296
251 253 255 257 258 259 261 262 264 266 268 270 272 273 274 275 276 277 279 280 280 282 283 285 285 286 286 287 286 286 288 290 292 293 293 293 292 293 294 295 296 296 296
252 253 255 257 258 260 262 264 266 267 270 271 272 274 274 275 277 278 279 280 280 282 283 284 285 285 285 285 286 287 289 291 292 293 293 293 293 294 295 296 296 296 296
253 253 254 257 258 260 262 264 266 268 269 271 272 274 275 277 278 278 278 279 280 281 282 283 284 284 284 284 285 288 290 291 292 293 293 293 293 294 295 296 296 296 297
254 255 256 258 260 262 264 265 266 268 269 271 272 274 276 277 277 278 278 279 280 281 282 282 283 283 283 284 286 288 290 291 292 292 292 293 293 294 295 295 296 297 297
256 257 258 260 262 263 265 266 267 268 269 270 272 273 275 275 276 277 278 279 279 280 281 281 282 282 283 285 286 288 290 291 291 292 293 294 294 294 295 296 298 298 299
258 259 260 262 263 264 265 266 267 268 269 271 272 273 273 274 275 276 278 278 278 278 279 281 282 283 284 285 286 288 290 291 292 293 294 294 294 294 295 297 298 299 300
260 262 263 263 263 264 265 266 267 268 269 270 271 272 272 273 274 275 275 275 275 276 277 279 281 283 284 286 288 289 290 291 292 293 294 295 295 295 297 298 300 300 301
262 263 264 263 263 263 264 265 266 267 268 269 269 270 271 272 273 272 273 274 273 274 276 279 281 283 285 285 287 289 290 292 292 293 294 295 295 296 297 299 300 301 302
264 264 264 263 262 263 263 264 265 267 268 268 268 269 270 270 270 270 272 273 273 275 277 279 281 282 284 285 287 289 290 291 292 292 293 294 294 296 297 298 300 301 301
264 263 263 263 263 263 263 264 266 268 268 268 268 268 268 268 269 270 271 272 274 276 278 280 282 283 284 286 288 288 289 290 291 293 294 294 295 297 298 300 301 302 302
264 263 262 262 262 263 263 264 265 266 266 266 267 267 268 269 270 271 272 273 275 277 279 281 282 284 284 286 287 288 289 290 292 294 295 295 296 297 299 301 302 304 305
264 263 262 262 263 263 264 265 265 265 264 264 265 266 268 269 269 270 272 275 276 278 279 280 282 283 285 286 287 288 290 291 293 293 295 296 297 297 299 302 304 306 307
Height
5712 5716 5719 5722 5724 5727 5729 5731 5732 5734 5735 5736 5736 5737 5737 5736 5735 5735 5734 5733 5731 5730 5728 5726 5724 5722 5719 5716 5713 5709 5706 5702 5699 5697 5691 5687 5682 5677 5672 5667 5663 5658 5652
5702 5705 5708 5711 5714 5716 5718 5720 5722 5723 5725 5725 5726 5726 5726 5726 5725 5725 5723 5722 5720 5719 5717 5715 5713 5710 5708 5705 5701 5698 5694 5690 5687 5684 5680 5674 5670 5665 5660 5655 5650 5645 5640
5691 5695 5698 5701 5703 5706 5708 5710 5711 5713 5714 5715 5715 5716 5716 5715 5715 5714 5712 5711 5709 5707 5705 5703 5701 5698 5696 5693 5689 5686 5682 5678 5674 5670 5667 5662 5657 5652 5647 5642 5637 5632 5627
5680 5683 5687 5690 5692 5695 5697 5699 5700 5702 5703 5704 5704 5705 5705 5704 5703 5702 5701 5700 5698 5696 5694 5691 5689 5686 5683 5680 5677 5674 5670 5666 5661 5657 5653 5649 5645 5639 5634 5630 5625 5620 5614
5668 5672 5675 5678 5681 5683 5686 5688 5689 5690 5692 5692 5693 5693 5693 5693 5692 5691 5690 5688 5686 5684 5682 5679 5676 5674 5671 5668 5664 5661 5657 5653 5648 5644 5640 5636 5632 5627 5622 5617 5612 5607 5602
5657 5661 5664 5667 5670 5672 5674 5676 5677 5679 5680 5680 5681 5682 5681 5681 5680 5679 5678 5676 5674 5672 5669 5667 5664 5661 5658 5655 5651 5647 5643 5639 5635 5631 5627 5623 5619 5614 5609 5604 5599 5594 5590
5646 5649 5652 5655 5658 5660 5662 5664 5666 5667 5668 5669 5670 5670 5670 5669 5668 5667 5665 5664 5662 5660 5657 5655 5652 5648 5645 5642 5639 5635 5630 5626 5622 5618 5614 5610 5605 5601 5596 5591 5586 5581 5576
5635 5638 5641 5644 5646 5648 5650 5652 5654 5655 5656 5657 5657 5657 5657 5657 5656 5655 5653 5651 5649 5647 5645 5642 5639 5636 5632 5629 5626 5622 5618 5614 5609 5605 5601 5597 5592 5588 5583 5578 5573 5569 5564
5623 5626 5629 5632 5634 5636 5638 5640 5642 5643 5644 5645 5645 5645 5645 5644 5643 5642 5640 5638 5637 5635 5632 5629 5626 5623 5619 5616 5613 5610 5606 5601 5597 5592 5588 5584 5579 5575 5570 5566 5561 5557 5553
5611 5614 5617 5620 5622 5624 5626 5628 5629 5630 5631 5632 5632 5632 5632 5631 5630 5629 5627 5626 5624 5622 5619 5616 5613 5609 5606 5602 5599 5596 5593 5589 5585 5581 5576 5572 5567 5563 5558 5554 5549 5545 5540
5600 5603 5605 5608 5610 5612 5614 5616 5617 5618 5619 5619 5620 5619 5619 5618 5617 5616 5614 5612 5610 5608 5606 5603 5600 5596 5593 5589 5586 5583 5580 5576 5573 5569 5565 5560 5556 5551 5546 5542 5537 5533 5528
5589 5591 5594 5596 5598 5600 5602 5603 5604 5605 5606 5606 5607 5606 5606 5605 5604 5602 5601 5599 5597 5595 5593 5590 5587 5583 5580 5576 5573 5570 5567 5563 5560 5556 5553 5548 5544 5540 5535 5531 5526 5521 5517
5578 5580 5582 5584 5586 5587 5589 5590 5591 5592 5593 5594 5594 5593 5593 5592 5591 5589 5588 5586 5584 5582 5580 5577 5574 5570 5567 5564 5561 5557 5554 5551 5548 5544 5540 5536 5532 5528 5524 5520 5515 5510 5505
5567 5569 5571 5572 5574 5575 5577 5578 5579 5580 5581 5581 5581 5581 5580 5579 5578 5576 5575 5573 5571 5569 5566 5564 5561 5558 5555 5552 5548 5545 5542 5539 5536 5532 5529 5524 5520 5516 5512 5508 5504 5500 5495
5555 5557 5559 5561 5562 5564 5565 5566 5567 5568 5568 5568 5568 5568 5567 5567 5565 5563 5562 5560 5558 5556 5554 5551 5549 5546 5543 5540 5537 5534 5531 5527 5524 5521 5517 5513 5509 5505 5501 5497 5493 5489 5485
5544 5546 5548 5549 5551 5552 5553 5554 5554 5555 5555 5555 5555 5555 5554 5554 5552 5550 5549 5547 5545 5544 5541 5539 5537 5534 5531 5528 5526 5523 5520 5516 5513 5509 5506 5502 5498 5494 5491 5486 5482 5479 5475
5532 5534 5536 5537 5539 5540 5541 5542 5542 5543 5542 5542 5542 5542 5541 5541 5539 5538 5536 5534 5533 5531 5529 5527 5524 5522 5520 5517 5514 5512 5509 5505 5502 5498 5495 5491 5488 5484 5481 5477 5473 5469 5466
5520 5522 5524 5525 5526 5527 5528 5529 5530 5530 5530 5530 5529 5529 5528 5527 5526 5525 5523 5522 5520 5518 5517 5515 5513 5510 5508 5506 5503 5501 5498 5495 5491 5488 5485 5481 5478 5475 5471 5468 5464 5461 5457
5508 5510 5511 5513 5514 5514 5515 5516 5516 5517 5517 5517 5517 5516 5515 5514 5513 5512 5510 5509 5508 5506 5505 5503 5501 5499 5497 5495 5493 5490 5487 5484 5481 5478 5475 5472 5468 5465 5462 5459 5455 5452 5448
5497 5498 5499 5500 5501 5502 5502 5503 5503 5504 5504 5504 5504 5503 5503 5502 5501 5500 5498 5497 5496 5495 5493 5492 5490 5488 5486 5484 5482 5480 5477 5475 5472 5469 5466 5463 5459 5456 5453 5450 5447 5443 5440
5486 5487 5487 5488 5489 5490 5490 5491 5491 5491 5492 5492 5492 5491 5490 5490 5489 5488 5487 5486 5485 5484 5483 5482 5480 5479 5477 5475 5472 5470 5468 5465 5463 5460 5457 5454 5451 5448 5445 5442 5439 5435 5431
5475 5476 5476 5477 5477 5478 5479 5480 5480 5480 5480 5480 5480 5480 5479 5479 5478 5477 5477 5476 5475 5474 5473 5472 5471 5469 5467 5465 5463 5461 5459 5456 5454 5451 5449 5446 5443 5440 5437 5434 5431 5427 5424
5465 5465 5465 5466 5467 5468 5468 5469 5469 5469 5469 5469 5469 5469 5469 5468 5468 5467 5467 5466 5465 5465 5464 5463 5461 5460 5458 5456 5454 5452 5450 5448 5445 5443 5440 5438 5435 5432 5429 5426 5423 5419 5416
5455 5455 5456 5456 5457 5458 5458 5459 5459 5460 5459 5459 5459 5459 5459 5458 5458 5458 5457 5457 5456 5455 5455 5453 5452 5450 5449 5447 5445 5444 5442 5439 5437 5435 5432 5430 5427 5425 5422 5419 5415 5412 5409
5446 5446 5447 5447 5448 5449 5449 5450 5450 5450 5450 5450 5450 5450 5450 5450 5449 5449 5448 5448 5447 5447 5446 5445 5443 5442 5441 5439 5437 5435 5433 5431 5429 5427 5424 5422 5420 5417 5414 5412 5409 5406 5403
5438 5438 5439 5439 5440 5441 5441 5442 5442 5442 5442 5442 5442 5442 5442 5441 5441 5441 5441 5440 5439 5438 5437 5436 5435 5434 5433 5431 5429 5427 5425 5423 5421 5419 5417 5415 5413 5410 5408 5405 5402 5400 5397